Location: Bakov nad Jizerou
(50.4784°N, 14.9394°E)
Time: 13:54:52
(UTC+00:00)

Cosmos 1536 Rocket - Pass Details

Date: 18 October 2021
Orbit: 605 x 632 km, 82.5° (Epoch: 05 December)

Event Time Altitude Azimuth Distance (km) Brightness Sun altitude
Rises 04:24:42 0° 152° (SSE) 2,901 7.5 -10.7°
Reaches altitude 10° 04:27:18 10° 137° (SE) 1,995 6.9 -10.3°
Maximum altitude 04:30:42 22° 87° (E) 1,366 6.5 -9.8°
Drops below altitude 10° 04:34:06 10° 36° (NE) 1,994 6.6 -9.3°
Sets 04:36:42 0° 22° (NNE) 2,901 7.2 -8.8°
